Location: Taukkyan
(23.1052°N, 94.0030°E)
Time: 11:06:48
(UTC+00:00)

Cosmos 2278 Rocket - Pass Details

Date: 06 July 2020
Orbit: 841 x 845 km, 71.0° (Epoch: 14 August)

Event Time Altitude Azimuth Distance (km) Brightness Sun altitude
Rises 15:48:28 0° 359° (N) 3,399 6.0 -35.7°
Reaches altitude 10° 15:51:22 10° 13° (NNE) 2,462 5.0 -36.1°
Enters shadow 15:53:06 17° 27° (NNE) 2,006 4.4 -36.3°
